| time (UTC) | temp F | wind direction | speed MPH | gust MPH | rain 1hr in | rain 24hr in | rain mn in | humidity % | barometer mb |
| 20260905022552 | 61 | 284 | 6.0 | 24.0 | 0.00 | 0.17 | 0.02 | 90 | 1008.2 |
| 20260905022052 | 61 | 271 | 12.0 | 25.0 | 0.00 | 0.17 | 0.02 | 91 | 1008.4 |
| 20260905021552 | 61 | 248 | 10.0 | 25.0 | 0.00 | 0.17 | 0.02 | 91 | 1008.3 |
| 20260905021051 | 61 | 236 | 9.0 | 29.0 | 0.00 | 0.17 | 0.02 | 91 | 1008.1 |
| 20260905020550 | 61 | 234 | 9.0 | 29.0 | 0.00 | 0.17 | 0.02 | 91 | 1008.1 |
| 20260905020052 | 61 | 266 | 7.0 | 28.0 | 0.00 | 0.17 | 0.02 | 91 | 1008.1 |
| 20260905015549 | 61 | 288 | 9.0 | 26.0 | 0.00 | 0.17 | 0.02 | 91 | 1008.1 |
| 20260905015048 | 61 | 294 | 12.0 | 26.0 | 0.00 | 0.17 | 0.02 | 91 | 1008.2 |
| 20260905014546 | 61 | 238 | 9.0 | 22.0 | 0.00 | 0.17 | 0.02 | 91 | 1008.2 |
| 20260905014049 | 61 | 207 | 12.0 | 27.0 | 0.00 | 0.17 | 0.02 | 92 | 1008.0 |
| 20260905013546 | 61 | 253 | 13.0 | 27.0 | 0.00 | 0.17 | 0.02 | 92 | 1007.9 |
| 20260905013050 | 61 | 254 | 10.0 | 27.0 | 0.00 | 0.17 | 0.02 | 92 | 1008.1 |
| 20260905012545 | 61 | 207 | 9.0 | 27.0 | 0.00 | 0.17 | 0.02 | 92 | 1007.9 |
| 20260905012045 | 61 | 222 | 7.0 | 28.0 | 0.00 | 0.17 | 0.02 | 92 | 1007.9 |
| 20260905011553 | 61 | 205 | 13.0 | 28.0 | 0.00 | 0.17 | 0.02 | 92 | 1008.0 |
| 20260905011048 | 61 | 284 | 10.0 | 26.0 | 0.00 | 0.17 | 0.02 | 92 | 1007.8 |
| 20260905010546 | 61 | 282 | 12.0 | 23.0 | 0.01 | 0.17 | 0.02 | 92 | 1007.9 |
| 20260905010044 | 61 | 321 | 9.0 | 29.0 | 0.01 | 0.17 | 0.02 | 92 | 1007.6 |
| 20260905005543 | 61 | 258 | 9.0 | 29.0 | 0.01 | 0.17 | 0.02 | 92 | 1007.4 |
| 20260905005041 | 61 | 300 | 9.0 | 25.0 | 0.01 | 0.17 | 0.02 | 91 | 1007.6 |
| 20260905004549 | 61 | 245 | 14.0 | 27.0 | 0.01 | 0.17 | 0.02 | 91 | 1007.9 |
| 20260905003538 | 61 | 265 | 9.0 | 32.0 | 0.01 | 0.17 | 0.02 | 91 | 1008.0 |
| 20260905003037 | 61 | 275 | 13.0 | 26.0 | 0.01 | 0.17 | 0.02 | 91 | 1007.9 |
| 20260905002536 | 61 | 269 | 14.0 | 25.0 | 0.01 | 0.17 | 0.02 | 91 | 1007.8 |
| 20260905002034 | 61 | 227 | 11.0 | 28.0 | 0.01 | 0.17 | 0.02 | 90 | 1007.3 |
| 20260905001533 | 61 | 238 | 14.0 | 28.0 | 0.01 | 0.17 | 0.02 | 90 | 1007.1 |
| 20260905001037 | 62 | 253 | 8.0 | 36.0 | 0.01 | 0.17 | 0.02 | 90 | 1006.8 |
| 20260905000532 | 62 | 281 | 12.0 | 36.0 | 0.00 | 0.16 | 0.01 | 89 | 1007.0 |
| 20260905000032 | 62 | 223 | 13.0 | 32.0 | 0.00 | 0.16 | 0.01 | 89 | 1006.7 |
| 20260904235531 | 62 | 220 | 11.0 | 28.0 | 0.00 | 0.16 | 0.01 | 89 | 1007.0 |
| 20260904235033 | 62 | 284 | 14.0 | 28.0 | 0.00 | 0.16 | 0.01 | 89 | 1007.0 |
| 20260904234539 | 62 | 252 | 12.0 | 30.0 | 0.00 | 0.16 | 0.01 | 89 | 1006.9 |
| 20260904234027 | 62 | 242 | 9.0 | 30.0 | 0.01 | 0.16 | 0.01 | 88 | 1006.6 |
| 20260904233527 | 62 | 343 | 13.0 | 30.0 | 0.01 | 0.16 | 0.01 | 88 | 1006.7 |
| 20260904233036 | 62 | 257 | 13.0 | 28.0 | 0.01 | 0.16 | 0.01 | 88 | 1006.7 |
| 20260904232526 | 62 | 247 | 11.0 | 29.0 | 0.01 | 0.16 | 0.01 | 88 | 1006.8 |
| 20260904232028 | 63 | 253 | 10.0 | 29.0 | 0.01 | 0.16 | 0.01 | 89 | 1006.6 |
| 20260904231523 | 63 | 299 | 12.0 | 27.0 | 0.01 | 0.16 | 0.01 | 89 | 1006.7 |
| 20260904231023 | 63 | 262 | 13.0 | 32.0 | 0.01 | 0.16 | 0.01 | 89 | 1006.5 |
| 20260904230522 | 63 | 234 | 16.0 | 32.0 | 0.01 | 0.16 | 0.01 | 89 | 1006.4 |
| 20260904230027 | 63 | 248 | 12.0 | 30.0 | 0.01 | 0.16 | 0.01 | 90 | 1006.3 |
| 20260904225525 | 64 | 265 | 10.0 | 27.0 | 0.01 | 0.16 | 0.01 | 90 | 1006.2 |
| 20260904225020 | 64 | 251 | 10.0 | 25.0 | 0.01 | 0.16 | 0.01 | 90 | 1006.0 |
| 20260904224526 | 64 | 280 | 8.0 | 26.0 | 0.01 | 0.16 | 0.01 | 90 | 1006.0 |
| 20260904224016 | 64 | 269 | 11.0 | 26.0 | 0.00 | 0.15 | 0.00 | 90 | 1005.7 |
| 20260904223515 | 64 | 231 | 11.0 | 27.0 | 0.00 | 0.15 | 0.00 | 91 | 1005.8 |
| 20260904223014 | 64 | 193 | 11.0 | 26.0 | 0.00 | 0.15 | 0.00 | 91 | 1005.9 |
| 20260904222511 | 65 | 299 | 9.0 | 26.0 | 0.00 | 0.15 | 0.00 | 92 | 1005.7 |
| 20260904222011 | 65 | 224 | 8.0 | 23.0 | 0.00 | 0.15 | 0.00 | 92 | 1005.5 |
| 20260904221509 | 65 | 248 | 11.0 | 30.0 | 0.00 | 0.15 | 0.00 | 92 | 1005.4 |
| 20260904221009 | 65 | 261 | 7.0 | 30.0 | 0.00 | 0.15 | 0.00 | 92 | 1004.9 |
| 20260904220508 | 65 | 236 | 10.0 | 23.0 | 0.00 | 0.15 | 0.00 | 93 | 1005.0 |
| 20260904220006 | 65 | 218 | 11.0 | 23.0 | 0.00 | 0.15 | 0.15 | 93 | 1005.1 |
| 20260904215507 | 65 | 257 | 8.0 | 24.0 | 0.00 | 0.15 | 0.15 | 93 | 1005.3 |
| 20260904215006 | 65 | 217 | 7.0 | 21.0 | 0.00 | 0.15 | 0.15 | 93 | 1005.4 |
| 20260904214510 | 64 | 221 | 5.0 | 18.0 | 0.00 | 0.15 | 0.15 | 93 | 1005.2 |
| 20260904214009 | 64 | 232 | 10.0 | 21.0 | 0.00 | 0.15 | 0.15 | 93 | 1005.3 |
| 20260904213606 | 64 | 223 | 8.0 | 23.0 | 0.00 | 0.15 | 0.15 | 93 | 1005.2 |
| 20260904213006 | 64 | 244 | 11.0 | 23.0 | 0.00 | 0.15 | 0.15 | 93 | 1004.9 |
| 20260904212504 | 64 | 196 | 4.0 | 22.0 | 0.00 | 0.15 | 0.15 | 93 | 1005.1 |
| 20260904212008 | 64 | 262 | 7.0 | 21.0 | 0.00 | 0.15 | 0.15 | 92 | 1005.3 |
| 20260904211503 | 64 | 221 | 9.0 | 22.0 | 0.00 | 0.15 | 0.15 | 92 | 1005.5 |
| 20260904211005 | 64 | 217 | 8.0 | 22.0 | 0.00 | 0.15 | 0.15 | 92 | 1005.6 |
| 20260904210504 | 64 | 220 | 6.0 | 12.0 | 0.00 | 0.15 | 0.15 | 92 | 1005.5 |
| 20260904210004 | 64 | 224 | 7.0 | 16.0 | 0.00 | 0.15 | 0.15 | 92 | 1005.6 |
| 20260904205503 | 64 | 238 | 6.0 | 13.0 | 0.00 | 0.15 | 0.15 | 92 | 1005.3 |
| 20260904205007 | 64 | 229 | 6.0 | 13.0 | 0.00 | 0.15 | 0.15 | 92 | 1005.2 |
| 20260904204502 | 64 | 225 | 3.0 | 15.0 | 0.00 | 0.15 | 0.15 | 92 | 1005.2 |
| 20260904204002 | 64 | 244 | 6.0 | 15.0 | 0.01 | 0.15 | 0.15 | 92 | 1005.1 |
| 20260904203502 | 64 | 251 | 5.0 | 19.0 | 0.01 | 0.15 | 0.15 | 91 | 1005.2 |
| 20260904203002 | 64 | 273 | 5.0 | 15.0 | 0.02 | 0.15 | 0.15 | 91 | 1005.2 |
| 20260904202502 | 64 | 236 | 4.0 | 21.0 | 0.04 | 0.15 | 0.15 | 92 | 1005.4 |
| 20260904202002 | 65 | 265 | 6.0 | 21.0 | 0.10 | 0.15 | 0.15 | 91 | 1005.4 |
| 20260904201501 | 65 | 310 | 8.0 | 21.0 | 0.13 | 0.15 | 0.15 | 91 | 1005.5 |
| 20260904201000 | 65 | 309 | 12.0 | 23.0 | 0.15 | 0.15 | 0.15 | 91 | 1005.8 |
| 20260904200501 | 65 | 298 | 12.0 | 23.0 | 0.15 | 0.15 | 0.15 | 91 | 1005.8 |
| 20260904195600 | 66 | 273 | 10.0 | 35.0 | 0.15 | 0.15 | 0.15 | 91 | 1005.6 |
| 20260904195502 | 66 | 286 | 9.0 | 35.0 | 0.15 | 0.15 | 0.15 | 91 | 1005.5 |
| 20260904195103 | 66 | 312 | 14.0 | 39.0 | 0.15 | 0.15 | 0.15 | 91 | 1005.6 |
| 20260904194603 | 66 | 290 | 21.0 | 39.0 | 0.15 | 0.15 | 0.15 | 90 | 1005.9 |
| 20260904194058 | 67 | 291 | 17.0 | 40.0 | 0.14 | 0.14 | 0.14 | 90 | 1006.0 |
| 20260904193558 | 67 | 250 | 22.0 | 47.0 | 0.14 | 0.14 | 0.14 | 89 | 1005.8 |
| 20260904193058 | 68 | 299 | 20.0 | 47.0 | 0.13 | 0.13 | 0.13 | 88 | 1005.5 |
| 20260904192556 | 70 | 297 | 17.0 | 39.0 | 0.11 | 0.11 | 0.11 | 85 | 1004.9 |
| 20260904192056 | 71 | 360 | 14.0 | 24.0 | 0.05 | 0.05 | 0.05 | 80 | 1004.3 |
| 20260904191556 | 72 | 307 | 8.0 | 23.0 | 0.02 | 0.02 | 0.02 | 77 | 1003.9 |
| 20260904191056 | 73 | 286 | 9.0 | 35.0 | 0.00 | 0.00 | 0.00 | 76 | 1003.8 |
| 20260904190555 | 74 | 240 | 12.0 | 35.0 | 0.00 | 0.00 | 0.00 | 73 | 1003.7 |
| 20260904190057 | 74 | 178 | 16.0 | 33.0 | 0.00 | 0.00 | 0.00 | 72 | 1003.6 |
| 20260904185553 | 75 | 220 | 15.0 | 33.0 | 0.00 | 0.00 | 0.00 | 70 | 1003.7 |
| 20260904185051 | 75 | 223 | 18.0 | 31.0 | 0.00 | 0.00 | 0.00 | 69 | 1003.6 |
| 20260904184602 | 75 | 211 | 17.0 | 37.0 | 0.00 | 0.00 | 0.00 | 69 | 1003.7 |
| 20260904184048 | 75 | 236 | 14.0 | 31.0 | 0.00 | 0.00 | 0.00 | 69 | 1003.7 |
| 20260904183546 | 75 | 184 | 17.0 | 31.0 | 0.00 | 0.00 | 0.00 | 69 | 1003.6 |
| 20260904183046 | 74 | 227 | 17.0 | 34.0 | 0.00 | 0.00 | 0.00 | 69 | 1003.7 |
| 20260904182548 | 74 | 230 | 17.0 | 34.0 | 0.00 | 0.00 | 0.00 | 69 | 1003.6 |
| 20260904182046 | 74 | 198 | 18.0 | 34.0 | 0.00 | 0.00 | 0.00 | 70 | 1003.7 |
| 20260904181546 | 74 | 227 | 14.0 | 30.0 | 0.00 | 0.00 | 0.00 | 69 | 1003.6 |
| 20260904181045 | 74 | 238 | 16.0 | 36.0 | 0.00 | 0.00 | 0.00 | 69 | 1003.8 |
| 20260904180544 | 74 | 207 | 14.0 | 36.0 | 0.00 | 0.00 | 0.00 | 69 | 1003.8 |
| 20260904180056 | 74 | 217 | 17.0 | 32.0 | 0.00 | 0.00 | 0.00 | 69 | 1004.0 |
| 20260904175541 | 74 | 240 | 14.0 | 32.0 | 0.00 | 0.00 | 0.00 | 69 | 1004.1 |
| 20260904175039 | 74 | 257 | 16.0 | 42.0 | 0.00 | 0.00 | 0.00 | 69 | 1004.1 |
| 20260904174540 | 74 | 186 | 14.0 | 42.0 | 0.00 | 0.00 | 0.00 | 69 | 1004.2 |
| 20260904174038 | 74 | 248 | 16.0 | 32.0 | 0.00 | 0.00 | 0.00 | 69 | 1004.3 |
| 20260904173536 | 74 | 192 | 19.0 | 30.0 | 0.00 | 0.00 | 0.00 | 70 | 1004.5 |
| 20260904173045 | 74 | 257 | 16.0 | 36.0 | 0.00 | 0.00 | 0.00 | 70 | 1004.4 |
| 20260904172635 | 74 | 216 | 17.0 | 36.0 | 0.00 | 0.00 | 0.00 | 70 | 1004.4 |
| 20260904172035 | 74 | 223 | 15.0 | 35.0 | 0.00 | 0.00 | 0.00 | 70 | 1004.4 |
| 20260904171532 | 74 | 224 | 14.0 | 31.0 | 0.00 | 0.00 | 0.00 | 70 | 1004.5 |
| 20260904171032 | 74 | 223 | 15.0 | 31.0 | 0.00 | 0.00 | 0.00 | 70 | 1004.6 |
| 20260904170530 | 74 | 220 | 13.0 | 31.0 | 0.00 | 0.00 | 0.00 | 70 | 1004.6 |
| 20260904170028 | 74 | 216 | 12.0 | 24.0 | 0.00 | 0.00 | 0.00 | 70 | 1004.7 |
| 20260904165527 | 74 | 209 | 14.0 | 24.0 | 0.00 | 0.00 | 0.00 | 70 | 1004.8 |
| 20260904165026 | 74 | 236 | 13.0 | 23.0 | 0.00 | 0.00 | 0.00 | 70 | 1004.9 |
| 20260904164523 | 74 | 190 | 12.0 | 23.0 | 0.00 | 0.00 | 0.00 | 70 | 1005.0 |
| 20260904164022 | 74 | 257 | 11.0 | 21.0 | 0.00 | 0.00 | 0.00 | 69 | 1005.1 |
| 20260904163520 | 74 | 249 | 11.0 | 27.0 | 0.00 | 0.00 | 0.00 | 70 | 1005.3 |
| 20260904163024 | 74 | 261 | 15.0 | 28.0 | 0.00 | 0.00 | 0.00 | 70 | 1005.3 |
| 20260904162522 | 74 | 249 | 13.0 | 26.0 | 0.00 | 0.00 | 0.00 | 70 | 1005.3 |
| 20260904162016 | 74 | 234 | 12.0 | 23.0 | 0.00 | 0.00 | 0.00 | 70 | 1005.5 |
| 20260904161515 | 74 | 245 | 12.0 | 27.0 | 0.00 | 0.00 | 0.00 | 71 | 1005.6 |
| 20260904161016 | 74 | 217 | 14.0 | 34.0 | 0.00 | 0.00 | 0.00 | 71 | 1005.6 |
| 20260904160516 | 74 | 223 | 13.0 | 34.0 | 0.00 | 0.00 | 0.00 | 71 | 1005.5 |
| 20260904160011 | 73 | 258 | 15.0 | 34.0 | 0.00 | 0.00 | 0.00 | 71 | 1005.7 |
| 20260904155511 | 74 | 261 | 15.0 | 34.0 | 0.00 | 0.00 | 0.00 | 71 | 1005.6 |
| 20260904155009 | 74 | 201 | 11.0 | 29.0 | 0.00 | 0.00 | 0.00 | 71 | 1005.7 |
| 20260904154508 | 74 | 221 | 13.0 | 24.0 | 0.00 | 0.00 | 0.00 | 71 | 1005.8 |
| 20260904154006 | 74 | 233 | 15.0 | 25.0 | 0.00 | 0.00 | 0.00 | 71 | 1006.0 |
| 20260904153505 | 73 | 234 | 9.0 | 23.0 | 0.00 | 0.00 | 0.00 | 72 | 1006.1 |
| 20260904153006 | 73 | 254 | 15.0 | 28.0 | 0.00 | 0.00 | 0.00 | 72 | 1006.1 |
| 20260904152505 | 73 | 256 | 15.0 | 28.0 | 0.00 | 0.00 | 0.00 | 72 | 1006.1 |
| 20260904152104 | 73 | 223 | 11.0 | 29.0 | 0.00 | 0.00 | 0.00 | 73 | 1006.2 |
| 20260904151503 | 73 | 192 | 12.0 | 29.0 | 0.00 | 0.00 | 0.00 | 73 | 1006.3 |
| 20260904151007 | 73 | 251 | 12.0 | 24.0 | 0.00 | 0.00 | 0.00 | 73 | 1006.4 |
| 20260904150503 | 73 | 225 | 11.0 | 24.0 | 0.00 | 0.00 | 0.00 | 73 | 1006.3 |
| 20260904150007 | 73 | 218 | 12.0 | 33.0 | 0.00 | 0.00 | 0.00 | 73 | 1006.4 |
| 20260904145503 | 73 | 242 | 12.0 | 33.0 | 0.00 | 0.00 | 0.00 | 73 | 1006.6 |
| 20260904145100 | 73 | 227 | 14.0 | 31.0 | 0.00 | 0.00 | 0.00 | 72 | 1006.7 |
| 20260904144600 | 73 | 217 | 12.0 | 34.0 | 0.00 | 0.00 | 0.00 | 72 | 1006.8 |
| 20260904144101 | 73 | 211 | 13.0 | 34.0 | 0.00 | 0.00 | 0.00 | 72 | 1006.8 |
| 20260904143559 | 72 | 241 | 13.0 | 26.0 | 0.00 | 0.00 | 0.00 | 73 | 1007.0 |
| 20260904143058 | 72 | 217 | 11.0 | 33.0 | 0.00 | 0.00 | 0.00 | 73 | 1007.1 |
| 20260904142557 | 72 | 224 | 15.0 | 32.0 | 0.00 | 0.00 | 0.00 | 74 | 1007.3 |
| 20260904142058 | 72 | 218 | 13.0 | 24.0 | 0.00 | 0.00 | 0.00 | 74 | 1007.4 |
| 20260904141614 | 72 | 234 | 9.0 | 24.0 | 0.00 | 0.00 | 0.00 | 74 | 1007.4 |
| 20260904141055 | 72 | 252 | 11.0 | 22.0 | 0.00 | 0.00 | 0.00 | 74 | 1007.5 |
| 20260904140658 | 72 | 214 | 12.0 | 22.0 | 0.00 | 0.00 | 0.00 | 74 | 1007.5 |
| 20260904140055 | 72 | 267 | 12.0 | 30.0 | 0.00 | 0.00 | 0.00 | 74 | 1007.6 |
| 20260904135556 | 72 | 211 | 12.0 | 29.0 | 0.00 | 0.00 | 0.00 | 74 | 1007.6 |
| 20260904135054 | 71 | 230 | 13.0 | 29.0 | 0.00 | 0.00 | 0.00 | 75 | 1007.6 |
| 20260904134554 | 71 | 209 | 8.0 | 21.0 | 0.00 | 0.00 | 0.00 | 76 | 1007.8 |
| 20260904134051 | 70 | 225 | 11.0 | 23.0 | 0.00 | 0.00 | 0.00 | 76 | 1007.9 |
| 20260904133551 | 71 | 227 | 13.0 | 23.0 | 0.00 | 0.00 | 0.00 | 74 | 1007.9 |
| 20260904133052 | 71 | 207 | 8.0 | 18.0 | 0.00 | 0.00 | 0.00 | 72 | 1008.2 |
| 20260904132550 | 71 | 233 | 7.0 | 21.0 | 0.00 | 0.00 | 0.00 | 70 | 1008.2 |
| 20260904132054 | 72 | 197 | 8.0 | 28.0 | 0.00 | 0.00 | 0.00 | 70 | 1008.5 |
| 20260904131648 | 72 | 217 | 11.0 | 28.0 | 0.00 | 0.00 | 0.00 | 69 | 1008.5 |
| 20260904131050 | 72 | 268 | 8.0 | 21.0 | 0.00 | 0.00 | 0.00 | 69 | 1008.5 |
| 20260904130547 | 72 | 209 | 9.0 | 29.0 | 0.00 | 0.00 | 0.00 | 68 | 1008.6 |
| 20260904130047 | 72 | 221 | 13.0 | 29.0 | 0.00 | 0.00 | 0.00 | 68 | 1008.7 |
| 20260904125546 | 72 | 223 | 10.0 | 26.0 | 0.00 | 0.00 | 0.00 | 68 | 1008.8 |
| 20260904125046 | 72 | 217 | 15.0 | 26.0 | 0.00 | 0.00 | 0.00 | 67 | 1008.9 |
| 20260904124550 | 72 | 304 | 9.0 | 20.0 | 0.00 | 0.00 | 0.00 | 68 | 1008.8 |
| 20260904124045 | 72 | 259 | 10.0 | 23.0 | 0.00 | 0.00 | 0.00 | 68 | 1008.9 |
| 20260904123544 | 72 | 218 | 12.0 | 23.0 | 0.00 | 0.00 | 0.00 | 69 | 1008.9 |
| 20260904123102 | 72 | 188 | 10.0 | 23.0 | 0.00 | 0.00 | 0.00 | 69 | 1009.0 |
| 20260904122542 | 72 | 263 | 9.0 | 32.0 | 0.00 | 0.00 | 0.00 | 68 | 1009.2 |
| 20260904122041 | 72 | 218 | 16.0 | 32.0 | 0.00 | 0.00 | 0.00 | 67 | 1009.2 |
| 20260904121542 | 73 | 265 | 15.0 | 27.0 | 0.00 | 0.00 | 0.00 | 67 | 1009.3 |
| 20260904121041 | 73 | 205 | 12.0 | 26.0 | 0.00 | 0.00 | 0.00 | 67 | 1009.5 |
| 20260904120542 | 72 | 209 | 14.0 | 35.0 | 0.00 | 0.00 | 0.00 | 66 | 1009.6 |
| 20260904120040 | 72 | 248 | 16.0 | 30.0 | 0.00 | 0.00 | 0.00 | 67 | 1009.7 |
| 20260904115539 | 72 | 227 | 10.0 | 26.0 | 0.00 | 0.00 | 0.00 | 68 | 1009.7 |
| 20260904115038 | 73 | 211 | 16.0 | 25.0 | 0.00 | 0.00 | 0.00 | 67 | 1009.8 |
| 20260904114543 | 73 | 212 | 8.0 | 25.0 | 0.00 | 0.00 | 0.00 | 69 | 1009.7 |
| 20260904114037 | 72 | 227 | 10.0 | 26.0 | 0.00 | 0.00 | 0.00 | 71 | 1009.9 |
| 20260904113536 | 71 | 221 | 17.0 | 28.0 | 0.00 | 0.00 | 0.00 | 70 | 1010.2 |
| 20260904113035 | 71 | 185 | 17.0 | 28.0 | 0.00 | 0.00 | 0.00 | 70 | 1010.3 |
| 20260904112532 | 72 | 282 | 11.0 | 29.0 | 0.00 | 0.00 | 0.00 | 70 | 1010.3 |
| 20260904112032 | 72 | 224 | 13.0 | 29.0 | 0.00 | 0.00 | 0.00 | 70 | 1010.4 |
| 20260904111534 | 72 | 265 | 9.0 | 28.0 | 0.00 | 0.00 | 0.00 | 70 | 1010.4 |
| 20260904110531 | 71 | 254 | 11.0 | 25.0 | 0.00 | 0.00 | 0.00 | 73 | 1010.5 |
| 20260904110035 | 70 | 236 | 12.0 | 29.0 | 0.00 | 0.00 | 0.00 | 72 | 1010.5 |
| 20260904105532 | 70 | 198 | 15.0 | 35.0 | 0.00 | 0.00 | 0.00 | 72 | 1010.6 |
| 20260904105029 | 71 | 214 | 20.0 | 35.0 | 0.00 | 0.00 | 0.00 | 70 | 1010.7 |
| 20260904104529 | 71 | 242 | 11.0 | 29.0 | 0.00 | 0.00 | 0.00 | 71 | 1010.7 |
| 20260904104028 | 71 | 251 | 12.0 | 29.0 | 0.00 | 0.00 | 0.00 | 70 | 1010.7 |
| 20260904103531 | 71 | 229 | 10.0 | 24.0 | 0.00 | 0.00 | 0.00 | 70 | 1010.8 |
| 20260904103026 | 71 | 275 | 9.0 | 24.0 | 0.00 | 0.00 | 0.00 | 70 | 1010.9 |
| 20260904102524 | 70 | 253 | 12.0 | 28.0 | 0.00 | 0.00 | 0.00 | 72 | 1011.0 |
| 20260904102024 | 70 | 252 | 9.0 | 28.0 | 0.00 | 0.00 | 0.00 | 73 | 1011.2 |
| 20260904101522 | 69 | 246 | 9.0 | 28.0 | 0.00 | 0.00 | 0.00 | 72 | 1011.3 |
| 20260904101023 | 70 | 148 | 7.0 | 24.0 | 0.00 | 0.00 | 0.00 | 73 | 1011.4 |
| 20260904100523 | 70 | 248 | 7.0 | 30.0 | 0.00 | 0.00 | 0.00 | 73 | 1011.4 |
| 20260904100023 | 70 | 195 | 8.0 | 22.0 | 0.00 | 0.00 | 0.00 | 73 | 1011.4 |
| 20260904095525 | 70 | 244 | 12.0 | 22.0 | 0.00 | 0.00 | 0.00 | 72 | 1011.3 |
| 20260904095020 | 70 | 215 | 10.0 | 23.0 | 0.00 | 0.00 | 0.00 | 71 | 1011.4 |
| 20260904094520 | 70 | 255 | 7.0 | 26.0 | 0.00 | 0.00 | 0.00 | 73 | 1011.4 |
| 20260904094020 | 70 | 249 | 16.0 | 26.0 | 0.00 | 0.00 | 0.00 | 70 | 1011.4 |
| 20260904093522 | 71 | 291 | 4.0 | 20.0 | 0.00 | 0.00 | 0.00 | 73 | 1011.4 |
| 20260904093018 | 70 | 277 | 10.0 | 21.0 | 0.00 | 0.00 | 0.00 | 73 | 1011.4 |
| 20260904092520 | 69 | 294 | 12.0 | 28.0 | 0.00 | 0.00 | 0.00 | 74 | 1011.4 |
| 20260904092017 | 69 | 216 | 12.0 | 28.0 | 0.00 | 0.00 | 0.00 | 74 | 1011.5 |
| 20260904091515 | 69 | 242 | 14.0 | 32.0 | 0.00 | 0.00 | 0.00 | 75 | 1011.7 |
| 20260904091015 | 69 | 230 | 18.0 | 32.0 | 0.00 | 0.00 | 0.00 | 74 | 1011.8 |
| 20260904090017 | 68 | 279 | 11.0 | 26.0 | 0.00 | 0.00 | 0.00 | 77 | 1011.8 |
| 20260904085513 | 68 | 266 | 13.0 | 27.0 | 0.00 | 0.00 | 0.00 | 78 | 1012.0 |
| 20260904085010 | 68 | 298 | 14.0 | 27.0 | 0.00 | 0.00 | 0.00 | 78 | 1012.0 |
| 20260904084510 | 67 | 246 | 8.0 | 21.0 | 0.00 | 0.00 | 0.00 | 79 | 1012.0 |
| 20260904084009 | 67 | 238 | 8.0 | 21.0 | 0.00 | 0.00 | 0.00 | 79 | 1012.0 |
| 20260904083509 | 67 | 189 | 8.0 | 19.0 | 0.00 | 0.00 | 0.00 | 79 | 1012.0 |
| 20260904083009 | 67 | 247 | 9.0 | 19.0 | 0.00 | 0.00 | 0.00 | 78 | 1012.0 |
| 20260904082509 | 67 | 256 | 8.0 | 21.0 | 0.00 | 0.00 | 0.00 | 78 | 1012.0 |
| 20260904082008 | 68 | 257 | 10.0 | 22.0 | 0.00 | 0.00 | 0.00 | 79 | 1012.0 |
| 20260904081508 | 67 | 261 | 8.0 | 15.0 | 0.00 | 0.00 | 0.00 | 80 | 1011.9 |
| 20260904081007 | 67 | 248 | 5.0 | 23.0 | 0.00 | 0.00 | 0.00 | 81 | 1011.9 |
| 20260904080511 | 67 | 288 | 11.0 | 26.0 | 0.00 | 0.00 | 0.00 | 81 | 1012.0 |
| 20260904080006 | 66 | 323 | 8.0 | 26.0 | 0.00 | 0.00 | 0.00 | 81 | 1012.0 |
| 20260904075507 | 67 | 262 | 11.0 | 25.0 | 0.00 | 0.00 | 0.00 | 81 | 1012.0 |
| 20260904075006 | 67 | 235 | 9.0 | 26.0 | 0.00 | 0.00 | 0.00 | 81 | 1011.7 |
| 20260904074508 | 67 | 256 | 7.0 | 24.0 | 0.00 | 0.00 | 0.00 | 82 | 1011.9 |
| 20260904074004 | 66 | 274 | 9.0 | 24.0 | 0.00 | 0.00 | 0.00 | 83 | 1011.9 |
| 20260904073504 | 66 | 271 | 9.0 | 28.0 | 0.00 | 0.00 | 0.00 | 84 | 1011.9 |
| 20260904073003 | 65 | 242 | 11.0 | 28.0 | 0.00 | 0.00 | 0.00 | 84 | 1012.0 |
| 20260904072502 | 65 | 274 | 8.0 | 24.0 | 0.00 | 0.00 | 0.00 | 85 | 1011.8 |
| 20260904072100 | 65 | 246 | 11.0 | 24.0 | 0.00 | 0.00 | 0.00 | 85 | 1011.9 |
| 20260904071601 | 65 | 254 | 9.0 | 19.0 | 0.00 | 0.00 | 0.00 | 84 | 1012.0 |
| 20260904071059 | 65 | 295 | 7.0 | 17.0 | 0.00 | 0.00 | 0.00 | 85 | 1011.9 |
| 20260904070602 | 65 | 260 | 8.0 | 29.0 | 0.00 | 0.00 | 0.00 | 85 | 1011.9 |
| 20260904065556 | 65 | 219 | 4.0 | 21.0 | 0.00 | 0.00 | 0.00 | 85 | 1012.1 |
| 20260904065057 | 65 | 273 | 10.0 | 25.0 | 0.00 | 0.00 | 0.00 | 85 | 1012.1 |
| 20260904064555 | 65 | 229 | 9.0 | 26.0 | 0.00 | 0.00 | 0.00 | 85 | 1012.1 |
| 20260904064054 | 64 | 217 | 5.0 | 21.0 | 0.00 | 0.00 | 0.00 | 86 | 1012.2 |
| 20260904063554 | 64 | 275 | 9.0 | 21.0 | 0.00 | 0.00 | 0.00 | 86 | 1012.2 |
| 20260904063107 | 64 | 232 | 9.0 | 20.0 | 0.00 | 0.00 | 0.00 | 86 | 1012.3 |
| 20260904062555 | 64 | 232 | 8.0 | 20.0 | 0.00 | 0.00 | 0.00 | 86 | 1012.4 |
| 20260904062054 | 64 | 278 | 4.0 | 18.0 | 0.00 | 0.00 | 0.00 | 87 | 1012.5 |
| 20260904061559 | 64 | 273 | 6.0 | 18.0 | 0.00 | 0.00 | 0.00 | 86 | 1012.4 |
| 20260904061050 | 63 | 264 | 6.0 | 18.0 | 0.00 | 0.00 | 0.00 | 87 | 1012.3 |
| 20260904060550 | 63 | 252 | 8.0 | 17.0 | 0.00 | 0.00 | 0.00 | 87 | 1012.3 |
| 20260904060109 | 63 | 242 | 8.0 | 19.0 | 0.00 | 0.00 | 0.00 | 87 | 1012.1 |
| 20260904055550 | 63 | 225 | 9.0 | 19.0 | 0.00 | 0.00 | 0.00 | 87 | 1012.2 |
| 20260904055047 | 63 | 207 | 8.0 | 16.0 | 0.00 | 0.00 | 0.00 | 87 | 1012.1 |
| 20260904054546 | 63 | 222 | 8.0 | 12.0 | 0.00 | 0.00 | 0.00 | 87 | 1012.2 |
| 20260904054045 | 63 | 241 | 3.0 | 15.0 | 0.00 | 0.00 | 0.00 | 87 | 1012.2 |
| 20260904053543 | 63 | 270 | 5.0 | 12.0 | 0.00 | 0.00 | 0.00 | 87 | 1012.1 |
| 20260904053042 | 63 | 218 | 5.0 | 14.0 | 0.00 | 0.00 | 0.00 | 87 | 1012.2 |
| 20260904052540 | 63 | 249 | 4.0 | 15.0 | 0.00 | 0.00 | 0.00 | 88 | 1012.2 |
| 20260904052039 | 63 | 217 | 6.0 | 21.0 | 0.00 | 0.00 | 0.00 | 88 | 1012.3 |
| 20260904051538 | 63 | 234 | 11.0 | 21.0 | 0.00 | 0.00 | 0.00 | 88 | 1012.3 |
| 20260904051037 | 63 | 259 | 6.0 | 14.0 | 0.00 | 0.00 | 0.00 | 88 | 1012.3 |
| 20260904050537 | 63 | 243 | 4.0 | 17.0 | 0.00 | 0.00 | 0.00 | 88 | 1012.3 |
| 20260904050036 | 63 | 229 | 5.0 | 17.0 | 0.00 | 0.00 | 0.00 | 88 | 1012.4 |
| 20260904045035 | 63 | 224 | 7.0 | 15.0 | 0.00 | 0.00 | 0.00 | 88 | 1012.4 |
| 20260904044542 | 63 | 279 | 5.0 | 18.0 | 0.00 | 0.00 | 0.00 | 87 | 1012.3 |
| 20260904044031 | 63 | 233 | 4.0 | 19.0 | 0.00 | 0.00 | 0.00 | 87 | 1012.3 |
| 20260904043530 | 63 | 257 | 7.0 | 20.0 | 0.00 | 0.00 | 0.00 | 87 | 1012.4 |
| 20260904043029 | 63 | 207 | 2.0 | 20.0 | 0.00 | 0.00 | 0.00 | 87 | 1012.5 |
| 20260904042529 | 63 | 259 | 5.0 | 15.0 | 0.00 | 0.00 | 0.00 | 87 | 1012.6 |
| 20260904042028 | 63 | 254 | 9.0 | 19.0 | 0.00 | 0.00 | 0.00 | 87 | 1012.6 |
| 20260904041526 | 63 | 226 | 8.0 | 21.0 | 0.00 | 0.00 | 0.00 | 86 | 1012.5 |
| 20260904041030 | 63 | 243 | 5.0 | 15.0 | 0.00 | 0.00 | 0.00 | 86 | 1012.5 |
| 20260904040525 | 63 | 255 | 8.0 | 17.0 | 0.00 | 0.00 | 0.00 | 86 | 1012.5 |
| 20260904040026 | 63 | 261 | 4.0 | 23.0 | 0.00 | 0.00 | 0.00 | 86 | 1012.6 |
| 20260904035525 | 63 | 249 | 7.0 | 23.0 | 0.00 | 0.00 | 0.00 | 86 | 1012.6 |
| 20260904035025 | 62 | 229 | 6.0 | 20.0 | 0.00 | 0.00 | 0.00 | 87 | 1012.5 |
| 20260904034524 | 62 | 253 | 6.0 | 12.0 | 0.00 | 0.00 | 0.00 | 87 | 1012.5 |
| 20260904034022 | 62 | 253 | 7.0 | 12.0 | 0.00 | 0.00 | 0.00 | 87 | 1012.5 |
| 20260904033522 | 62 | 286 | 5.0 | 12.0 | 0.00 | 0.00 | 0.00 | 87 | 1012.6 |
| 20260904033021 | 62 | 216 | 5.0 | 13.0 | 0.00 | 0.00 | 0.00 | 87 | 1012.5 |
| 20260904032522 | 62 | 260 | 7.0 | 13.0 | 0.00 | 0.00 | 0.00 | 87 | 1012.5 |
| 20260904032021 | 62 | 228 | 5.0 | 14.0 | 0.00 | 0.00 | 0.00 | 86 | 1012.5 |
| 20260904031519 | 62 | 223 | 4.0 | 14.0 | 0.00 | 0.00 | 0.00 | 86 | 1012.6 |
| 20260904031020 | 62 | 215 | 4.0 | 11.0 | 0.00 | 0.00 | 0.00 | 86 | 1012.5 |
| 20260904030519 | 62 | 241 | 3.0 | 15.0 | 0.00 | 0.00 | 0.00 | 86 | 1012.6 |
| 20260904030019 | 62 | 257 | 6.0 | 15.0 | 0.00 | 0.00 | 0.00 | 86 | 1012.5 |
| 20260904025517 | 62 | 214 | 6.0 | 17.0 | 0.00 | 0.00 | 0.00 | 85 | 1012.7 |
| 20260904025018 | 62 | 242 | 7.0 | 17.0 | 0.00 | 0.00 | 0.00 | 85 | 1012.6 |
| 20260904024517 | 62 | 241 | 6.0 | 15.0 | 0.00 | 0.00 | 0.00 | 85 | 1012.7 |
| 20260904024015 | 62 | 213 | 5.0 | 15.0 | 0.00 | 0.00 | 0.00 | 85 | 1012.7 |
| 20260904023515 | 62 | 238 | 2.0 | 11.0 | 0.00 | 0.00 | 0.00 | 84 | 1012.7 |
| 20260904023015 | 62 | 227 | 2.0 | 15.0 | 0.00 | 0.00 | 0.00 | 84 | 1012.7 |